Location: Cahas Mountain Overlook
(37.0833°N, 80.1000°W)
Time: 06:40:53
(UTC-04:00)

Explorer 7 - Pass Details

Date: 13 February 2026
Orbit: 430 x 540 km, 50.2° (Epoch: 14 March)

Event Time Altitude Azimuth Distance (km) Brightness Sun altitude
Rises 16:34:46 0° 234° (SW) 2,422 12.0 14.5°
Reaches altitude 10° 16:36:51 10° 235° (SW) 1,570 11.9 14.2°
Maximum altitude 16:40:23 79° 321° (NW) 473 6.8 13.6°
Drops below altitude 10° 16:44:06 10° 50° (NE) 1,642 8.7 12.9°
Sets 16:46:19 0° 51° (NE) 2,546 9.6 12.5°
